Wind_Speed
86 86 86 85 85 85 85 84 84 84 83 83 83 82 82 82 82 82 82 83 83 84 84 84 85 85 86 86 86 87 87 87 87 87 86 86 86 86 86 86 86 86 86 86 87 87 88 88 88 89 89 89 90 90 91 91 92 92 93 93 94 94 95 95 96 97 97 98 99 99 100 100 101 101 102 102 103 103 103 104 104 104 104 105 105 105
86 85 84 83 83 83 83 82 82 81 81 81 81 81 81 81 82 82 83 83 84 84 85 85 86 86 87 87 87 87 88 88 87 87 87 87 87 87 87 88 88 88 88 89 89 89 90 90 91 91 91 91 91 92 92 92 93 93 93 94 94 94 95 95 96 96 97 97 98 99 99 100 100 101 101 102 102 103 103 104 104 104 104 104 104 105
85 84 83 82 81 81 81 81 80 80 80 81 81 81 81 82 83 83 84 84 85 85 86 86 87 87 88 88 89 89 89 89 89 89 89 89 89 89 89 90 90 90 91 91 91 92 92 93 93 93 93 94 94 94 94 94 95 95 95 95 95 96 96 96 96 97 97 98 98 99 99 100 101 101 102 102 103 103 104 104 104 105 105 105 105 105
83 82 81 80 80 80 80 80 81 81 81 81 81 82 82 83 84 84 85 86 86 87 87 88 88 89 89 90 90 90 90 90 90 90 91 91 91 91 92 92 92 92 93 93 94 94 95 95 95 96 96 96 96 97 97 97 97 97 97 98 98 98 98 98 98 99 99 99 100 100 101 101 102 103 103 104 104 104 105 105 106 106 107 107 107 107
81 80 80 80 80 80 81 81 81 82 82 82 82 83 83 84 84 85 86 86 87 88 89 89 90 90 91 91 91 92 92 92 92 92 92 93 93 93 93 94 94 94 95 95 96 96 97 97 97 98 98 98 99 99 99 100 100 100 100 101 101 101 101 101 101 101 102 102 102 103 103 104 105 105 106 106 106 107 107 108 108 109 109 109 110 110
80 80 80 80 81 82 82 83 83 83 83 83 83 84 84 85 85 86 87 88 88 89 90 90 91 91 92 92 93 93 93 93 93 93 93 94 94 94 95 95 95 96 96 97 97 98 98 99 99 100 100 100 101 101 102 102 103 103 103 103 103 104 104 104 104 105 105 105 106 106 107 107 108 108 109 109 110 110 111 111 111 112 112 112 112 112
81 81 81 82 82 83 83 84 84 84 84 84 85 85 85 86 86 87 88 88 89 90 90 91 91 92 93 93 93 93 93 93 94 94 94 95 95 95 96 96 97 97 98 98 99 99 100 100 101 101 102 102 103 103 104 104 105 105 105 106 106 106 106 106 107 107 107 108 108 109 109 110 111 111 112 112 112 113 113 113 114 114 114 114 114 114
82 82 83 83 84 84 85 85 85 85 85 85 86 86 86 87 87 88 88 89 90 90 91 91 92 92 93 93 94 94 94 94 94 95 95 96 96 97 97 98 98 98 99 100 100 101 101 101 102 102 102 103 104 104 105 105 106 106 106 107 107 107 107 108 108 108 109 109 110 110 111 111 112 112 113 113 113 114 114 114 114 114 114 114 114 113
84 84 85 85 85 86 86 86 86 86 86 86 86 87 87 88 88 88 89 89 90 90 91 91 92 93 93 94 94 94 94 94 95 95 96 97 97 98 98 99 99 100 100 101 101 101 102 102 102 102 103 103 104 104 105 105 105 106 106 106 107 107 107 107 108 108 108 109 109 110 110 111 111 112 112 113 113 113 113 113 113 113 113 113 112 112
85 85 86 86 86 86 87 87 87 87 87 87 87 87 88 88 89 89 89 90 90 90 90 91 92 93 94 94 95 95 95 95 96 96 97 98 98 99 99 100 100 101 101 101 102 102 102 102 103 103 103 103 104 104 105 105 105 105 105 106 106 106 106 106 106 107 107 108 108 109 109 110 110 111 111 112 112 112 112 113 113 112 112 112 111 111
86 86 87 87 87 87 87 88 88 88 88 88 88 88 88 88 88 89 89 89 90 90 91 91 92 93 94 96 96 96 96 97 97 98 98 99 99 100 100 101 101 102 102 103 103 103 103 103 103 104 104 104 104 105 105 105 105 105 105 105 105 106 106 106 106 106 107 107 108 109 109 110 110 111 111 112 112 112 113 113 113 112 112 112 111 111
87 88 88 88 88 88 88 89 89 89 89 89 89 89 89 88 88 88 88 89 90 91 92 93 94 95 96 97 98 98 98 98 99 99 100 101 101 101 102 102 103 103 104 104 104 104 105 105 105 105 105 105 105 105 105 106 106 106 106 106 106 106 106 106 107 107 107 108 109 109 110 111 111 112 112 113 113 113 113 113 113 113 112 112 112 111
88 88 89 89 89 89 89 89 89 89 89 89 89 89 89 89 88 88 89 90 91 92 93 94 96 97 98 98 99 99 99 99 100 100 101 102 103 103 104 104 104 105 105 106 106 106 106 106 106 106 106 106 106 106 106 106 106 106 106 106 106 106 106 107 107 107 107 108 109 109 110 111 111 112 112 112 113 113 113 113 112 112 111 111 110 110
89 89 89 90 90 90 90 90 89 89 89 89 89 89 89 89 89 90 90 92 92 93 94 96 97 99 100 100 100 100 100 101 101 102 103 104 104 105 105 106 106 106 106 107 107 107 106 106 106 106 106 106 106 106 105 105 105 105 105 105 105 105 105 105 105 105 106 106 106 107 108 108 109 109 110 110 110 110 110 110 109 109 108 107 106 106
90 90 90 90 90 90 89 89 89 89 89 89 89 89 90 90 91 92 93 94 95 96 96 98 99 100 101 102 102 101 101 102 102 103 104 105 105 105 106 106 106 106 106 106 106 106 106 105 105 105 105 104 104 103 103 102 102 102 102 101 101 101 101 101 101 101 102 102 102 103 103 104 104 105 105 105 106 106 105 105 104 104 103 101 101 100
90 90 90 90 90 89 89 89 89 89 89 89 90 90 91 92 93 94 95 96 97 97 98 99 100 102 103 103 103 103 102 102 103 103 104 105 105 105 105 104 104 104 104 105 104 104 104 103 103 102 102 101 101 100 99 99 98 97 97 96 96 96 95 95 95 96 96 96 97 97 98 98 99 99 100 100 100 100 100 99 99 97 96 95 94 94
89 89 89 89 89 89 89 89 89 90 90 91 92 92 93 94 95 96 97 98 99 99 100 100 102 103 104 105 105 104 103 103 103 103 103 104 104 103 103 102 102 102 102 102 102 101 101 100 100 99 99 98 97 96 95 94 93 92 92 91 90 90 89 89 89 90 90 90 91 91 92 92 93 94 94 94 95 95 94 94 93 92 90 89 88 88
89 89 89 88 89 89 89 90 91 91 92 93 93 94 95 96 97 98 99 99 100 101 101 102 103 104 105 106 106 105 103 103 102 102 101 101 101 101 100 99 99 98 98 98 98 98 97 97 96 96 95 94 93 92 91 89 88 87 86 85 85 84 84 84 84 84 85 85 85 86 87 87 88 88 89 90 90 90 89 89 88 87 85 84 83 83
88 89 89 89 89 90 91 92 93 93 94 95 96 97 98 98 99 100 100 101 102 102 103 104 104 105 105 105 105 104 102 101 100 99 98 98 98 97 96 96 95 95 95 95 95 94 94 93 93 92 91 90 89 88 86 85 84 83 82 81 80 79 79 79 79 79 80 80 81 82 82 83 84 84 85 85 86 86 85 85 84 82 81 79 78 78
89 89 89 90 91 92 93 94 94 95 96 97 98 98 100 100 101 101 102 102 103 103 103 104 104 104 104 104 103 102 100 98 97 96 95 94 94 94 93 92 92 92 92 92 92 91 90 90 89 89 88 86 85 84 82 81 80 78 77 76 76 75 75 74 75 75 75 76 77 78 78 79 80 81 81 82 82 82 82 81 80 78 77 75 75 74
90 91 91 92 93 94 95 96 97 97 98 99 99 100 101 102 102 103 103 103 103 104 103 103 103 103 102 101 101 99 97 95 94 93 91 91 91 91 90 89 89 89 89 89 88 88 87 87 86 86 84 83 81 80 78 77 76 74 73 72 71 71 71 71 70 71 71 72 73 74 75 76 77 78 78 79 79 79 78 78 77 75 73 72 71 71
91 92 93 94 95 96 97 98 99 99 100 101 101 102 103 103 104 104 104 104 103 103 103 102 102 101 100 99 98 97 95 93 91 90 89 88 88 87 87 87 86 86 86 86 86 85 85 85 84 83 82 80 78 77 75 73 72 71 70 69 68 67 67 67 67 67 68 69 70 71 72 73 74 75 76 76 76 76 75 75 73 72 70 68 67 67
94 95 95 96 97 98 99 100 101 101 102 102 103 103 104 104 104 105 104 103 103 102 101 100 99 98 97 97 96 94 93 91 89 87 86 85 85 85 84 84 84 84 83 83 83 83 83 83 82 81 80 78 76 74 72 70 69 67 66 65 64 63 63 63 63 64 65 66 67 68 69 70 72 72 73 73 73 73 72 71 70 68 66 65 64 64
96 97 98 99 99 100 101 102 103 103 104 104 104 104 104 104 104 103 103 102 100 99 98 97 97 96 95 94 93 92 90 88 86 84 83 82 82 82 82 81 81 81 81 81 81 81 81 81 80 80 78 77 75 72 70 68 66 64 63 62 61 60 60 60 60 61 62 63 64 66 67 68 69 70 70 70 70 70 69 68 66 65 63 61 61 61
98 99 100 101 102 102 103 104 105 105 105 105 105 105 104 104 103 102 100 99 98 96 95 95 94 93 92 91 91 89 88 86 83 81 80 79 78 78 78 78 78 78 78 78 78 78 78 78 78 78 77 75 73 70 68 66 64 62 60 59 58 58 58 58 59 59 60 61 62 64 65 66 67 68 68 68 68 67 66 65 63 61 60 58 58 58
100 101 102 103 103 104 105 106 106 106 106 106 105 105 104 103 101 100 99 97 95 94 93 92 91 90 89 88 87 87 85 83 80 78 76 76 75 76 76 76 75 75 75 75 75 75 75 76 75 75 74 73 71 69 67 65 62 60 59 58 57 57 57 57 58 58 59 60 61 63 64 65 66 66 66 66 65 65 64 62 61 59 57 56 56 56
101 102 103 104 105 106 106 106 106 106 106 105 104 103 102 101 99 98 96 95 93 92 91 90 88 87 86 85 84 84 82 80 78 76 74 73 73 73 73 73 73 73 72 72 72 72 73 73 73 73 72 71 70 68 66 64 62 60 58 57 57 56 56 57 57 58 59 60 61 62 63 64 64 65 64 64 63 63 61 60 58 56 55 54 54 55
103 104 105 106 106 106 107 107 106 106 105 104 102 101 99 98 97 96 94 92 91 89 88 86 85 84 83 82 81 81 80 78 76 73 72 71 71 71 71 71 71 70 70 70 70 70 71 71 71 71 70 69 68 67 65 63 61 59 58 57 56 56 56 56 57 57 58 59 61 62 62 63 63 63 63 62 62 61 60 58 57 55 54 53 53 54
105 105 106 106 106 107 106 106 105 104 103 102 100 98 96 95 94 93 91 89 88 86 85 83 82 81 80 79 78 78 77 76 74 72 70 70 70 69 69 69 69 68 68 68 68 68 69 69 69 69 68 67 66 65 64 62 60 58 57 56 56 55 55 55 56 57 58 59 60 61 61 62 62 61 61 61 60 59 58 57 55 54 53 52 52 53
106 106 107 107 106 106 105 105 104 102 101 99 97 96 94 92 91 90 88 86 85 83 82 80 79 78 77 76 75 75 74 73 72 70 69 69 69 68 68 68 67 67 66 66 66 66 67 67 67 67 66 65 64 63 62 60 58 57 56 55 54 54 54 54 55 56 57 58 59 60 60 60 60 60 59 59 58 57 57 55 54 53 52 51 52 52
107 107 107 107 106 105 104 103 101 100 98 96 95 93 91 90 88 87 85 83 82 80 79 77 76 75 74 74 73 73 72 71 70 69 68 68 68 68 67 67 66 65 64 64 63 63 64 65 65 64 63 62 61 60 59 58 56 55 54 54 53 53 53 53 54 55 56 57 58 58 58 58 58 58 57 57 56 56 55 54 53 52 51 51 51 51
107 107 106 106 105 103 102 100 99 97 96 94 92 91 89 87 86 84 82 80 79 77 76 75 74 73 72 71 71 71 71 70 69 68 67 67 67 67 66 66 65 64 63 62 61 61 61 62 62 62 61 60 59 58 57 55 54 53 52 52 52 52 52 52 53 54 55 56 56 56 56 56 55 55 55 55 54 54 53 52 51 51 50 50 50 51
107 106 105 104 103 101 100 98 96 95 93 91 90 88 87 85 83 81 79 77 76 75 73 73 71 70 70 70 69 70 70 69 68 67 66 66 66 65 65 64 63 62 61 60 59 59 58 59 59 59 59 58 57 56 54 53 52 51 51 50 50 50 50 50 51 52 53 54 54 54 54 53 53 52 52 52 51 51 51 50 49 49 49 49 49 50
105 104 103 101 100 99 97 95 94 92 90 89 87 86 84 82 80 78 77 75 73 72 71 70 69 69 68 68 69 69 69 68 67 66 65 65 65 64 63 62 61 60 59 59 58 57 56 56 56 56 56 56 55 53 52 51 49 49 48 48 48 48 48 49 49 50 50 51 51 51 50 50 50 49 49 49 48 48 48 48 47 47 47 48 48 48
103 101 100 99 97 96 94 93 91 89 88 86 84 83 81 79 78 76 74 73 71 70 69 68 67 67 67 67 68 68 68 67 66 66 65 64 63 62 62 61 60 58 58 57 56 55 54 54 53 53 53 53 52 51 49 48 47 46 46 46 46 46 46 46 46 47 47 48 48 47 47 46 46 46 45 45 45 45 45 45 45 45 45 46 47 47
100 99 97 96 94 93 91 90 88 87 85 83 81 80 78 76 75 73 72 70 69 68 67 66 66 66 66 66 67 67 67 66 66 65 64 63 62 61 60 59 58 56 55 55 54 53 52 52 51 50 50 50 49 48 47 46 45 44 44 43 43 43 43 43 43 44 44 44 44 43 43 43 42 42 42 42 42 42 42 42 42 43 43 44 45 46
97 96 94 93 91 90 89 87 85 83 82 80 78 77 75 74 72 71 69 68 67 66 66 65 65 65 65 65 65 65 65 64 64 63 62 61 60 59 58 57 55 54 53 52 52 51 50 49 48 48 47 46 46 45 44 43 42 42 41 41 40 40 40 40 41 41 41 40 40 40 39 39 39 38 38 38 38 39 39 39 40 41 42 43 43 44
94 93 91 90 88 87 85 84 82 80 78 77 75 74 72 71 70 68 67 66 65 65 65 64 64 64 64 64 64 63 63 62 61 61 60 59 58 56 55 54 53 52 51 50 49 48 47 47 46 45 44 43 43 42 41 41 40 39 39 38 37 37 37 38 37 37 37 37 36 36 36 35 35 35 35 35 35 36 36 37 38 39 40 41 42 42
91 90 88 87 85 84 82 80 78 77 75 74 72 71 70 69 67 66 65 64 64 64 64 63 63 63 62 62 62 61 61 60 59 58 57 56 55 54 53 52 51 49 48 47 46 46 45 44 43 42 41 40 40 39 38 38 37 36 36 35 35 35 35 35 34 34 33 33 33 32 32 32 32 32 32 33 33 34 34 35 36 37 38 39 39 40
88 87 85 83 82 80 78 77 75 73 72 70 69 68 67 66 65 64 63 63 63 63 63 62 62 61 60 60 59 59 58 57 56 55 54 53 52 51 50 49 48 47 46 45 44 43 42 41 41 40 39 38 37 37 36 35 35 34 33 32 32 32 32 32 31 31 30 30 30 30 30 30 30 30 30 30 31 32 32 33 34 35 36 36 37 38
85 83 82 80 78 77 75 73 71 70 68 67 66 65 64 64 63 63 63 62 62 62 61 61 60 59 58 57 56 56 56 55 54 53 51 50 49 48 47 46 45 44 43 42 41 40 40 39 38 37 37 36 35 34 34 33 32 32 31 30 30 30 30 29 29 28 28 28 27 27 28 27 28 28 28 29 29 30 30 31 32 32 33 34 35 35
81 80 78 77 75 73 71 69 68 66 65 64 63 63 62 62 62 62 62 62 61 61 60 59 58 57 56 55 54 53 53 52 51 50 49 48 46 45 44 43 42 41 40 40 39 38 37 37 36 35 34 34 33 32 32 31 31 30 29 29 28 28 28 27 27 26 26 26 26 26 26 26 26 26 26 27 27 28 29 29 30 31 32 32 33 34
78 76 75 73 71 69 68 66 65 64 62 61 61 60 60 60 60 61 61 60 60 59 58 57 56 55 54 53 52 51 50 50 49 48 47 45 44 43 42 41 40 39 38 37 37 36 35 35 34 33 33 32 31 31 30 30 29 28 28 27 26 26 26 25 25 25 24 24 24 24 24 24 24 24 25 25 26 27 27 28 29 29 30 31 32 33
74 72 71 69 68 66 65 63 62 61 60 59 59 59 59 59 59 59 59 59 58 57 56 55 54 53 52 51 49 48 47 46 46 45 44 43 42 41 40 38 37 37 36 35 34 34 33 33 32 32 31 30 30 29 29 28 27 27 26 26 25 25 24 24 23 23 23 23 23 22 22 23 23 23 24 24 25 25 26 27 28 29 29 30 31 32
70 69 67 66 65 63 62 61 59 58 58 57 57 57 58 58 58 58 57 57 56 55 54 53 52 51 50 49 47 46 45 44 43 42 42 41 40 39 38 37 35 35 34 33 32 32 31 31 31 30 30 29 28 28 27 27 26 26 25 24 24 23 23 23 22 22 21 21 21 21 21 21 21 22 22 23 24 24 25 26 27 28 29 30 30 31
67 66 64 63 61 60 59 58 57 56 56 56 56 56 57 56 56 56 55 55 53 52 51 50 49 49 48 47 46 44 43 41 40 39 39 38 38 37 36 35 34 33 32 31 31 30 30 29 29 29 28 28 27 27 26 26 25 25 24 24 23 23 22 22 21 21 20 20 20 20 20 20 20 21 21 22 22 23 24 25 26 27 28 29 29 30
64 62 61 60 58 57 56 55 55 55 55 55 55 55 55 55 55 54 53 52 51 50 49 48 48 47 46 45 44 42 41 39 38 37 36 36 35 35 34 34 33 32 31 30 30 29 28 28 27 27 27 26 26 26 25 25 24 24 23 23 22 22 21 21 20 20 19 19 19 19 19 19 19 20 20 21 21 22 23 24 25 25 26 27 28 29
61 59 58 57 56 54 54 53 54 54 54 54 54 54 54 53 53 52 51 50 49 48 47 47 46 45 44 43 42 40 39 37 36 35 34 34 33 33 32 32 32 31 30 29 29 28 27 27 26 26 26 25 25 25 24 23 23 22 22 21 21 21 20 20 19 19 18 18 18 18 18 18 18 19 19 20 21 21 22 23 24 24 25 26 27 27
57 56 55 54 53 52 52 52 53 53 53 53 53 53 52 52 51 50 49 48 47 46 46 45 44 43 42 41 40 38 37 35 34 33 32 32 32 31 31 30 30 29 29 28 28 27 27 26 26 25 25 24 24 23 23 22 22 21 21 20 20 19 19 18 18 18 17 17 17 17 17 17 18 18 19 19 20 21 21 22 23 23 24 25 25 26
54 53 52 51 51 51 51 52 52 52 53 53 52 52 51 50 49 48 47 46 45 44 44 43 43 42 41 40 38 37 35 34 33 32 31 31 31 30 30 29 29 28 28 27 27 26 26 26 25 25 24 24 23 22 22 21 21 21 20 19 19 18 18 17 17 17 16 16 16 16 16 17 17 17 18 18 19 20 20 21 21 22 23 23 24 24
51 50 50 49 50 50 50 51 51 51 52 51 51 50 50 48 47 46 45 44 43 43 42 42 41 40 39 38 37 35 34 33 32 31 31 30 30 30 29 29 28 27 27 26 26 25 25 25 24 24 24 23 22 22 21 21 20 20 19 19 18 17 17 17 16 16 16 15 15 15 15 16 16 16 17 17 18 18 19 19 20 20 21 22 22 23
Wind_Direction
295 294 294 293 293 292 292 291 291 291 291 291 291 291 291 291 290 290 290 290 289 289 289 289 288 288 288 288 287 287 287 287 287 287 287 287 287 286 286 286 286 285 285 284 284 283 283 282 281 280 279 279 278 277 277 276 275 275 274 273 273 272 272 271 270 270 270 269 269 269 268 268 268 267 267 267 267 266 266 266 266 266 265 265 265 265
295 294 294 293 293 292 292 291 291 291 291 291 291 291 291 291 291 290 290 290 289 289 289 289 288 288 288 288 287 287 287 287 287 287 287 287 287 287 286 286 286 285 285 284 283 283 282 281 281 280 279 279 278 277 277 276 275 275 274 274 273 272 272 271 271 270 270 270 269 269 269 268 268 268 268 267 267 267 267 267 266 266 266 266 266 265
295 294 294 293 293 292 292 292 291 291 291 291 291 291 291 291 290 290 290 290 289 289 289 289 288 288 288 288 287 287 287 287 287 287 287 287 286 286 286 285 285 284 283 283 282 281 281 280 280 279 278 278 277 277 276 276 275 275 274 274 273 273 272 272 271 271 271 270 270 270 269 269 269 268 268 268 268 268 267 267 267 267 267 266 266 266
294 294 294 293 293 292 292 292 292 291 291 291 291 291 291 290 290 290 290 290 289 289 289 289 288 288 288 288 288 287 287 287 287 287 287 286 286 285 285 284 283 283 282 282 281 280 280 279 279 278 278 277 277 276 276 276 275 275 274 274 273 273 273 272 272 271 271 271 271 270 270 270 269 269 269 269 268 268 268 268 268 267 267 267 267 267
294 294 294 294 293 293 292 292 292 291 291 291 291 291 290 290 290 290 290 289 289 289 289 289 289 288 288 288 288 288 287 287 287 287 286 286 285 285 284 283 283 282 281 281 280 279 279 278 278 277 277 277 276 276 275 275 275 274 274 274 273 273 273 273 272 272 272 271 271 271 271 270 270 270 270 269 269 269 269 269 268 268 268 268 267 267
294 294 294 293 293 293 292 292 291 291 291 291 291 291 290 290 290 290 290 290 289 289 289 289 289 289 289 288 288 288 288 287 287 287 286 285 285 284 283 283 282 281 281 280 279 279 278 278 277 277 277 276 276 276 275 275 275 274 274 274 274 273 273 273 273 272 272 272 272 271 271 271 271 271 270 270 270 270 269 269 269 269 269 268 268 268
294 294 294 293 293 292 292 291 291 291 291 291 291 291 291 291 291 290 290 290 290 290 290 290 290 289 289 289 288 288 288 287 287 286 286 285 284 284 283 282 282 281 280 280 279 279 278 278 277 277 277 276 276 276 275 275 275 274 274 274 274 273 273 273 273 273 272 272 272 272 272 271 271 271 271 271 270 270 270 270 270 269 269 269 269 269
294 294 293 293 292 292 292 292 291 292 291 292 291 291 291 291 291 291 291 291 291 291 290 290 290 290 289 289 289 288 288 287 287 286 285 285 284 283 283 282 282 281 281 280 279 279 278 278 278 277 277 277 276 276 275 275 275 275 274 274 274 274 274 273 273 273 273 273 272 272 272 272 271 271 271 271 271 271 270 270 270 270 270 270 270 270
294 293 293 292 292 292 292 292 292 292 292 292 292 292 292 292 292 292 292 291 291 291 291 291 291 290 289 289 288 288 287 287 286 286 285 285 284 284 283 283 282 281 281 280 280 279 279 279 278 278 277 277 277 276 276 276 275 275 275 275 274 274 274 274 274 273 273 273 273 272 272 272 272 272 271 271 271 271 271 271 270 270 270 270 270 270
293 293 293 293 292 292 293 293 293 293 293 293 293 293 293 293 293 293 292 292 292 292 291 291 291 290 290 289 288 288 287 287 286 286 285 285 284 284 284 283 283 282 282 281 281 280 280 279 279 278 278 278 277 277 276 276 276 275 275 275 275 275 274 274 274 274 273 273 273 273 272 272 272 272 272 271 271 271 271 271 271 270 270 270 270 270
293 293 293 293 293 293 293 293 294 294 294 294 294 293 293 293 293 293 293 293 292 292 292 291 291 290 289 289 288 288 287 287 287 286 286 285 285 284 284 284 283 283 282 282 281 281 281 280 280 279 279 278 278 277 277 276 276 276 276 275 275 275 275 274 274 274 274 273 273 273 273 272 272 272 272 271 271 271 271 271 271 271 271 271 270 270
294 294 294 294 294 294 294 294 294 294 294 294 294 294 294 294 294 293 293 293 293 292 292 291 291 290 289 289 288 288 288 287 287 287 287 286 286 285 285 284 284 284 283 283 282 281 281 280 280 279 279 278 278 278 277 277 276 276 276 276 275 275 275 275 274 274 274 273 273 273 272 272 272 272 272 271 271 271 271 271 271 271 271 271 271 270
294 294 295 295 295 295 295 295 295 295 295 295 295 295 295 295 294 294 294 293 293 292 292 291 291 290 289 289 289 288 288 288 288 288 288 287 287 286 286 285 285 284 284 283 283 282 281 281 280 280 279 279 278 278 277 277 277 277 276 276 276 276 275 275 275 274 274 273 273 273 272 272 272 272 271 271 271 271 271 271 271 271 270 270 270 270
295 295 295 295 295 295 296 296 296 296 295 295 295 295 295 295 295 294 294 293 293 292 292 291 291 290 290 289 289 289 289 289 289 289 288 288 287 287 287 286 286 285 285 284 283 283 282 281 281 280 280 279 279 278 278 278 277 277 277 276 276 276 276 275 275 274 274 274 273 273 272 272 272 271 271 271 271 271 270 270 270 270 270 270 270 270
296 296 296 296 296 296 296 296 296 296 296 296 296 296 296 295 295 294 294 293 293 292 292 292 291 291 291 290 290 290 290 290 290 290 289 289 288 288 287 287 286 286 285 285 284 283 283 282 282 281 281 280 279 279 279 278 278 278 277 277 277 276 276 276 275 275 274 274 273 273 272 272 272 271 271 271 271 270 270 270 270 270 270 270 270 269
296 296 296 296 296 296 297 297 297 296 296 296 296 296 296 296 295 295 294 294 293 293 293 293 293 292 292 292 291 291 291 291 291 291 290 290 289 289 288 288 287 287 286 286 285 284 284 283 283 282 281 281 280 280 280 279 279 278 278 278 277 277 276 276 275 275 274 274 273 273 273 272 272 271 271 271 270 270 270 270 270 270 270 270 269 269
296 296 296 297 297 297 297 297 297 297 297 297 297 296 296 296 295 295 295 294 294 294 294 294 294 294 294 293 293 292 292 292 292 292 291 291 290 290 289 289 288 288 287 286 286 285 285 284 284 283 282 282 281 281 281 280 280 279 279 278 278 277 277 276 276 275 275 274 274 273 272 272 272 271 271 271 270 270 270 270 270 270 269 269 269 268
297 297 297 297 297 297 298 297 297 297 297 297 297 297 296 296 296 296 295 295 295 295 295 295 295 295 295 295 294 294 294 293 293 293 292 292 291 290 290 289 289 289 288 287 287 286 285 285 284 284 283 283 282 282 282 281 281 280 280 279 279 278 277 277 276 275 275 274 274 273 272 272 271 271 271 270 270 270 270 270 269 269 269 269 268 268
297 298 298 298 298 298 298 298 298 298 298 298 297 297 297 297 297 297 297 297 297 297 297 297 297 296 296 296 295 295 294 294 294 293 293 292 292 291 291 290 290 289 289 288 287 287 286 285 285 284 284 283 283 283 282 282 281 281 280 280 279 279 278 277 276 276 275 274 274 273 272 272 271 271 270 270 270 270 269 269 269 269 269 268 268 267
298 298 298 299 299 299 299 298 298 298 298 298 298 298 298 298 298 298 298 298 298 298 298 298 298 298 297 297 296 295 295 295 294 294 293 293 293 292 292 291 291 290 289 288 288 287 287 286 285 285 284 284 283 283 283 282 282 281 281 280 280 279 278 277 276 276 275 274 273 273 272 271 271 270 270 270 270 269 269 269 269 269 268 268 267 267
299 299 299 299 299 299 299 299 299 299 299 299 299 299 299 299 299 299 299 299 299 299 299 299 299 298 298 297 297 296 296 295 295 295 294 294 294 293 293 292 291 291 290 289 289 288 287 287 286 285 285 284 284 284 283 283 282 282 281 281 280 279 278 277 276 275 275 274 273 272 272 271 270 270 270 269 269 269 269 269 269 269 268 268 267 266
300 300 300 300 300 300 300 300 300 300 300 300 300 300 300 300 300 300 300 300 301 301 300 300 300 299 299 298 298 297 296 296 296 296 295 295 295 294 294 293 292 291 291 290 290 289 288 288 287 287 286 286 285 285 284 284 283 283 282 281 280 279 278 277 276 275 274 273 272 272 271 270 270 270 269 269 269 269 269 269 269 269 268 268 267 266
301 301 301 301 301 301 301 301 301 301 301 301 301 301 301 301 301 301 301 302 302 301 301 301 300 300 299 299 298 298 297 297 297 297 296 296 296 295 294 294 293 292 291 291 290 290 289 289 288 288 288 287 287 286 286 285 284 284 283 282 281 280 278 277 276 275 274 273 272 271 270 270 269 269 269 269 269 269 269 269 269 268 268 267 267 266
301 301 301 301 301 301 301 301 301 301 301 301 302 302 302 302 302 302 302 302 302 302 302 301 301 300 300 299 299 298 298 297 297 297 297 297 296 295 294 294 293 292 292 291 291 290 290 290 289 289 289 289 288 288 287 287 286 285 284 283 282 280 279 278 276 275 273 272 271 270 270 269 269 269 268 268 269 269 269 269 269 268 268 267 266 265
302 302 302 302 302 302 302 302 302 302 302 302 302 303 303 303 303 303 303 303 303 302 302 302 301 301 300 300 299 299 298 298 298 298 297 297 296 295 294 293 292 292 291 291 291 291 290 290 290 290 290 290 290 289 289 288 288 287 285 284 283 281 279 278 276 274 273 272 270 269 269 268 268 268 268 268 268 268 269 269 269 268 268 267 266 265
302 302 302 302 302 302 302 302 302 303 303 303 303 303 304 304 304 304 304 304 303 303 302 302 301 301 301 300 299 299 298 298 298 298 298 297 296 295 294 293 292 292 291 291 291 291 291 291 291 291 291 291 291 290 290 289 289 288 286 285 283 282 280 278 276 274 272 271 270 269 268 268 267 267 268 268 268 268 268 268 268 268 267 267 266 265
302 302 302 302 302 302 303 303 303 303 303 304 304 304 304 305 305 304 304 304 304 303 303 302 302 302 301 301 300 299 299 298 298 298 298 297 296 295 294 293 293 292 292 292 292 292 292 291 291 291 291 291 291 291 290 290 289 288 287 285 283 282 279 277 275 273 272 270 269 268 267 267 267 267 267 268 268 268 268 268 268 268 267 266 265 264
302 302 302 302 303 303 303 303 303 304 304 304 305 305 305 305 305 305 304 304 304 304 303 303 302 302 302 301 301 300 299 299 299 299 298 297 296 295 294 294 293 293 293 293 293 293 292 292 292 291 291 291 291 290 290 289 289 288 286 285 283 281 279 277 275 273 271 269 268 267 267 267 267 267 267 267 268 268 268 268 268 267 266 265 264 263
302 303 303 303 303 303 303 304 304 304 305 305 305 305 305 305 305 305 305 304 304 304 304 303 303 303 302 302 301 301 300 300 300 300 299 298 297 296 296 295 295 295 295 295 294 294 293 292 292 291 291 291 290 290 290 289 288 287 286 284 282 280 278 276 274 272 270 269 268 267 267 267 267 267 267 267 267 267 267 267 267 266 265 264 263 263
303 303 303 303 303 304 304 304 305 305 305 306 306 306 306 306 305 305 305 305 305 304 304 304 304 303 303 302 302 301 301 301 300 300 300 299 298 298 297 297 296 296 296 296 295 294 294 293 292 291 291 290 290 290 289 289 288 287 285 284 282 279 278 276 274 272 270 269 268 268 267 267 267 267 267 267 267 267 267 267 266 265 265 264 263 262
303 303 303 304 304 304 305 305 305 306 306 306 306 306 306 306 306 306 305 305 305 305 305 305 304 304 304 303 303 302 302 301 301 301 301 300 300 299 299 298 298 298 297 297 296 295 294 293 292 292 291 291 290 290 289 289 288 287 285 283 281 279 277 276 274 272 271 270 269 268 268 268 268 267 267 267 267 267 267 266 266 265 264 263 262 262
303 304 304 304 305 305 305 305 306 306 306 307 307 307 306 306 306 306 306 306 306 306 306 306 305 305 305 304 304 303 302 302 302 302 302 301 301 301 300 300 299 299 298 297 297 296 294 294 293 292 292 291 291 290 289 289 288 287 285 284 282 280 278 276 274 273 271 271 270 269 269 269 269 268 268 268 267 267 266 266 265 264 263 262 261 261
304 304 304 305 305 305 306 306 306 307 307 307 307 307 307 307 307 307 307 307 307 307 306 306 306 306 305 305 304 304 303 303 303 303 303 303 302 302 301 301 301 300 299 298 297 296 295 294 293 293 293 292 291 291 290 289 288 287 286 284 282 280 278 276 275 273 272 272 271 271 271 270 270 269 269 268 268 267 266 266 265 263 262 261 261 260
304 304 304 305 305 306 306 306 307 307 307 307 307 307 307 307 307 307 307 307 307 307 307 307 307 306 306 306 305 305 304 304 304 304 304 304 304 303 303 302 302 301 300 299 298 297 296 295 294 294 293 293 293 292 291 291 289 288 286 284 282 280 279 277 276 275 274 273 273 272 272 272 271 271 270 269 268 268 267 265 264 263 262 261 260 260
304 304 305 305 305 306 306 307 307 307 307 307 307 308 308 308 308 308 308 308 308 308 308 307 307 307 307 307 307 306 306 306 306 306 306 306 305 305 304 303 303 302 301 301 299 298 297 296 296 295 295 294 294 293 293 291 290 288 286 284 282 281 279 278 277 276 275 274 274 274 273 273 272 272 271 270 269 268 266 265 264 262 261 260 259 259
304 304 305 305 306 306 307 307 307 307 307 308 308 308 308 308 308 308 308 308 308 308 308 308 308 308 309 308 308 308 308 307 307 307 307 307 306 306 305 305 304 303 303 302 301 300 299 298 297 296 296 295 295 294 293 292 290 289 287 285 284 282 281 279 278 277 276 275 275 275 274 274 273 272 271 270 268 267 266 264 263 262 260 259 259 258
304 305 305 305 306 306 307 307 307 307 308 308 308 308 308 308 308 308 309 309 309 309 309 309 309 310 310 309 309 309 308 308 308 308 308 307 307 306 306 305 305 304 304 303 302 301 300 299 299 298 297 297 296 295 294 293 292 290 289 287 286 284 283 281 279 278 277 277 276 275 275 274 273 271 270 269 267 266 264 263 261 260 259 258 258 257
304 305 305 306 306 307 307 307 307 308 308 308 308 308 308 308 309 309 309 309 309 310 310 310 310 310 310 310 310 309 309 309 309 308 308 308 307 307 307 306 306 305 305 304 303 302 302 301 300 299 299 298 297 296 295 294 293 292 291 289 288 286 284 282 281 280 279 278 277 276 275 273 272 270 269 267 265 264 263 261 260 259 258 257 257 257
305 305 306 306 306 307 307 307 308 308 308 308 308 308 308 309 309 309 309 310 310 311 311 311 311 311 311 311 310 309 309 309 309 309 308 308 308 308 307 307 307 306 306 305 304 304 303 303 302 301 300 299 299 298 297 296 295 294 292 291 289 287 285 284 282 282 280 279 278 276 275 273 271 269 267 265 264 262 261 260 259 258 257 257 257 257
305 306 306 306 306 307 307 307 308 308 309 308 308 309 309 309 309 309 310 311 311 311 311 312 311 311 311 311 310 310 309 309 309 309 309 309 309 308 308 308 308 308 307 307 306 306 305 304 304 303 302 301 300 299 298 297 296 295 293 291 290 288 287 285 284 283 282 280 278 276 274 272 270 268 266 265 263 261 260 259 258 257 257 257 257 257
306 306 306 306 306 307 307 308 308 308 308 308 309 309 309 309 310 310 311 311 312 312 312 312 312 311 311 311 311 310 310 310 310 310 310 309 309 309 309 309 309 309 309 309 308 307 307 306 305 304 304 303 302 301 300 299 298 296 295 293 291 290 289 287 286 284 282 280 278 276 274 272 270 268 266 264 262 260 259 258 257 257 256 256 256 256
306 306 306 306 306 307 308 308 308 309 308 309 309 309 309 310 311 311 312 312 312 312 312 312 312 312 311 311 311 311 310 310 310 310 310 310 311 311 311 311 311 311 311 311 310 310 309 308 307 306 306 305 304 303 302 301 300 299 297 296 294 293 291 289 288 286 284 281 279 277 275 272 270 268 266 264 262 260 259 257 256 256 255 255 254 254
306 306 306 306 307 308 308 308 308 309 309 309 309 309 310 311 311 312 312 312 313 313 313 312 312 312 312 311 311 311 311 311 311 311 312 312 312 312 313 313 313 313 313 313 312 312 311 310 309 309 308 307 306 305 304 303 302 301 300 298 297 296 294 292 290 288 286 283 281 278 276 274 271 269 266 264 262 260 258 257 255 254 254 253 252 252
306 306 306 307 307 308 308 309 309 309 309 309 310 310 311 311 312 312 312 313 313 313 312 312 312 312 312 311 311 311 312 312 312 313 313 314 314 314 314 315 315 315 315 315 314 314 313 312 312 311 310 309 308 307 306 305 304 303 302 300 299 297 296 294 292 290 288 285 283 280 277 275 272 270 267 265 262 260 258 257 255 254 253 253 252 252
306 306 307 307 308 308 309 309 309 309 309 310 310 311 311 312 312 313 313 313 313 313 312 312 312 312 312 312 312 312 312 313 313 314 315 315 316 316 316 316 316 316 317 316 316 316 315 314 313 313 312 311 310 309 308 307 306 305 303 302 301 299 297 296 294 292 290 287 285 282 279 276 274 271 268 266 264 261 259 258 256 255 254 253 253 253
306 306 307 308 308 309 309 309 309 309 310 310 311 312 312 312 313 313 313 313 313 312 312 312 312 312 312 312 312 312 313 313 314 315 316 317 317 318 318 318 318 318 318 318 317 317 317 316 315 315 314 313 312 311 310 309 308 307 305 304 303 301 299 297 296 293 291 289 287 284 281 278 275 273 270 268 265 263 261 259 258 257 255 255 255 255
306 307 308 308 309 309 309 309 309 310 310 311 312 312 313 313 313 313 313 313 313 313 312 312 312 312 312 313 313 313 314 315 316 317 318 318 319 319 319 319 319 319 319 319 319 318 318 317 316 316 315 314 313 312 311 310 309 308 307 305 304 303 301 299 297 295 293 291 288 285 282 279 277 274 271 269 267 264 262 260 259 258 257 257 257 257
307 308 308 309 309 309 309 310 310 311 311 312 312 313 313 313 313 313 313 313 313 313 313 313 313 313 313 313 314 315 315 316 317 318 319 319 320 320 320 320 320 320 320 320 320 319 319 318 317 317 316 315 314 313 312 311 309 308 307 306 305 304 303 301 299 297 294 292 289 286 283 280 277 274 271 269 267 265 263 262 261 260 260 259 259 259
308 308 309 309 309 310 310 311 311 312 312 313 313 313 313 313 313 313 313 313 313 313 313 313 314 314 314 314 315 316 317 318 319 320 320 321 321 321 321 320 320 320 320 320 320 320 320 319 318 317 316 315 314 313 312 311 310 309 308 307 306 305 303 302 299 297 295 292 289 286 283 280 277 274 272 270 269 267 266 265 264 263 263 263 262 262
308 309 309 310 310 310 311 312 312 312 313 313 314 314 314 314 314 314 314 314 314 314 314 314 314 315 315 316 317 318 318 319 320 321 321 322 322 322 321 321 321 321 321 321 321 321 321 320 319 318 317 316 315 314 313 312 311 310 309 308 307 305 304 302 300 298 295 292 290 287 285 282 279 277 275 273 272 271 270 269 268 267 266 266 265 265
309 309 310 310 311 311 312 312 313 313 314 314 314 314 314 314 314 314 314 314 315 314 314 315 315 316 317 317 318 319 320 320 321 322 323 323 323 323 323 322 322 322 322 322 322 322 322 321 320 319 318 317 316 315 314 313 312 311 310 309 308 307 305 303 301 299 297 294 292 289 287 285 283 281 279 278 277 275 274 273 271 270 268 267 267 266
Height
10441 10438 10436 10433 10430 10426 10422 10420 10417 10415 10411 10409 10408 10406 10403 10401 10399 10396 10395 10392 10390 10387 10385 10383 10380 10378 10376 10373 10371 10370 10368 10367 10366 10365 10364 10363 10362 10361 10360 10359 10358 10357 10356 10355 10353 10352 10351 10349 10348 10346 10345 10343 10342 10341 10340 10339 10338 10337 10336 10336 10335 10335 10335 10334 10334 10333 10333 10333 10332 10332 10332 10332 10331 10331 10331 10331 10331 10331 10331 10331 10331 10331 10332 10333 10333 10334
10434 10431 10429 10426 10423 10420 10415 10413 10411 10409 10406 10403 10401 10400 10398 10395 10393 10390 10388 10385 10383 10381 10378 10376 10373 10371 10369 10366 10365 10363 10361 10360 10359 10358 10357 10356 10355 10354 10353 10351 10350 10349 10348 10346 10345 10343 10341 10340 10338 10336 10335 10333 10332 10331 10330 10329 10328 10327 10326 10325 10325 10325 10324 10323 10323 10323 10322 10322 10321 10321 10321 10321 10320 10320 10320 10320 10320 10320 10320 10320 10320 10320 10320 10321 10322 10323
10426 10424 10421 10419 10416 10413 10410 10406 10404 10403 10401 10398 10396 10395 10393 10390 10387 10384 10382 10379 10376 10374 10371 10369 10366 10364 10361 10360 10358 10356 10354 10353 10352 10351 10350 10348 10347 10346 10345 10343 10342 10341 10339 10337 10335 10333 10331 10330 10328 10326 10325 10324 10322 10321 10320 10319 10318 10316 10316 10315 10315 10314 10313 10313 10313 10312 10312 10311 10311 10311 10310 10310 10310 10309 10309 10308 10308 10308 10308 10308 10308 10309 10309 10310 10310 10311
10420 10417 10414 10412 10410 10406 10403 10400 10398 10396 10395 10393 10391 10388 10386 10384 10381 10378 10376 10373 10370 10367 10364 10362 10360 10357 10355 10352 10350 10348 10347 10346 10345 10343 10342 10340 10339 10338 10336 10335 10333 10331 10330 10328 10325 10323 10321 10320 10318 10316 10315 10314 10313 10311 10310 10308 10308 10306 10305 10305 10304 10303 10303 10303 10302 10302 10301 10301 10301 10300 10300 10299 10298 10298 10298 10297 10297 10297 10297 10297 10297 10298 10298 10298 10299 10300
10413 10410 10407 10405 10402 10399 10396 10395 10392 10390 10388 10386 10385 10383 10380 10378 10375 10373 10370 10367 10364 10361 10358 10355 10353 10350 10347 10345 10342 10341 10339 10338 10336 10335 10333 10331 10330 10328 10326 10325 10323 10321 10319 10317 10315 10313 10311 10309 10308 10306 10305 10304 10302 10301 10300 10298 10297 10296 10295 10294 10293 10293 10293 10292 10291 10291 10291 10290 10290 10290 10289 10288 10288 10287 10286 10286 10286 10286 10286 10286 10286 10286 10286 10286 10287 10288
10406 10404 10401 10398 10396 10393 10390 10388 10386 10384 10382 10380 10378 10376 10374 10371 10369 10366 10363 10360 10357 10354 10351 10348 10345 10342 10339 10336 10334 10333 10331 10329 10328 10326 10324 10321 10320 10317 10315 10314 10312 10310 10308 10306 10304 10302 10300 10298 10297 10296 10295 10293 10292 10290 10289 10288 10286 10285 10285 10283 10283 10282 10282 10281 10281 10281 10280 10280 10279 10278 10278 10276 10276 10275 10275 10275 10274 10274 10274 10273 10273 10273 10274 10274 10275 10276
10400 10397 10395 10392 10389 10386 10384 10381 10379 10378 10376 10374 10371 10370 10368 10365 10362 10359 10356 10353 10350 10346 10343 10340 10337 10334 10331 10328 10326 10324 10322 10320 10318 10316 10314 10311 10309 10306 10305 10303 10301 10300 10297 10295 10293 10291 10289 10288 10286 10285 10284 10283 10281 10280 10278 10276 10275 10275 10273 10273 10272 10271 10271 10270 10270 10270 10269 10268 10268 10267 10266 10265 10264 10263 10263 10262 10262 10261 10261 10261 10261 10261 10261 10262 10263 10264
10393 10390 10388 10386 10383 10380 10377 10375 10373 10371 10370 10367 10365 10363 10360 10358 10355 10352 10349 10346 10342 10339 10336 10333 10329 10325 10322 10320 10317 10315 10313 10311 10309 10306 10303 10301 10298 10296 10294 10292 10290 10288 10286 10284 10281 10280 10278 10277 10276 10275 10273 10272 10270 10268 10267 10266 10265 10263 10263 10261 10261 10260 10260 10260 10259 10258 10258 10257 10256 10255 10254 10253 10252 10251 10250 10250 10250 10249 10248 10248 10248 10248 10249 10250 10251 10251
10386 10383 10380 10378 10376 10373 10370 10367 10366 10365 10363 10360 10358 10356 10353 10350 10346 10344 10341 10338 10335 10331 10328 10325 10320 10316 10313 10310 10308 10305 10303 10301 10299 10296 10294 10291 10288 10285 10283 10281 10279 10277 10275 10273 10270 10269 10267 10266 10265 10264 10263 10261 10259 10258 10256 10255 10253 10253 10251 10251 10250 10250 10249 10248 10248 10247 10246 10245 10245 10243 10242 10241 10240 10239 10238 10238 10237 10236 10236 10236 10236 10236 10237 10238 10238 10240
10380 10377 10374 10371 10369 10367 10364 10360 10358 10356 10355 10353 10350 10348 10346 10343 10340 10336 10333 10330 10326 10323 10320 10316 10313 10308 10303 10300 10297 10296 10294 10291 10289 10286 10284 10281 10278 10275 10272 10270 10268 10266 10263 10261 10259 10257 10256 10255 10254 10253 10251 10250 10248 10246 10245 10243 10243 10241 10241 10240 10239 10238 10238 10238 10237 10236 10235 10234 10233 10231 10230 10229 10228 10227 10226 10225 10225 10224 10224 10224 10224 10224 10225 10226 10227 10228
10373 10370 10368 10364 10361 10359 10357 10355 10351 10349 10347 10345 10341 10339 10338 10336 10333 10330 10325 10321 10318 10315 10311 10308 10304 10300 10295 10290 10286 10285 10284 10282 10280 10276 10273 10271 10268 10265 10263 10260 10258 10255 10253 10250 10248 10246 10245 10243 10242 10241 10240 10238 10236 10235 10233 10233 10231 10230 10230 10229 10228 10228 10227 10226 10226 10225 10224 10223 10221 10220 10218 10217 10216 10215 10214 10213 10212 10212 10211 10211 10211 10212 10213 10214 10215 10216
10366 10363 10360 10357 10354 10351 10349 10346 10345 10342 10340 10337 10333 10330 10328 10326 10325 10323 10319 10314 10310 10306 10302 10298 10293 10290 10286 10282 10278 10275 10273 10272 10270 10266 10263 10260 10257 10254 10252 10249 10246 10244 10241 10239 10236 10235 10233 10231 10230 10229 10227 10226 10225 10223 10222 10221 10220 10219 10218 10218 10217 10216 10216 10215 10215 10214 10213 10211 10210 10208 10206 10205 10203 10203 10201 10201 10200 10200 10200 10200 10200 10200 10201 10202 10204 10205
10358 10356 10353 10350 10346 10344 10341 10339 10336 10333 10331 10329 10326 10323 10319 10316 10315 10313 10310 10306 10301 10298 10295 10290 10284 10279 10276 10273 10270 10267 10265 10263 10260 10257 10254 10250 10246 10243 10241 10238 10235 10232 10230 10227 10225 10222 10220 10220 10218 10216 10215 10213 10212 10211 10210 10210 10209 10208 10207 10206 10206 10205 10205 10204 10203 10201 10200 10199 10197 10196 10194 10193 10191 10190 10189 10188 10188 10187 10187 10187 10188 10189 10190 10191 10192 10194
10351 10348 10345 10342 10340 10337 10335 10332 10329 10326 10323 10321 10318 10316 10312 10309 10306 10303 10300 10296 10292 10288 10286 10281 10276 10270 10266 10262 10260 10258 10256 10254 10251 10248 10245 10240 10235 10231 10230 10227 10223 10220 10217 10215 10211 10208 10207 10206 10205 10203 10202 10201 10200 10199 10198 10198 10197 10196 10196 10195 10195 10194 10193 10192 10191 10190 10188 10186 10185 10183 10181 10180 10179 10178 10176 10176 10175 10175 10175 10175 10176 10177 10178 10180 10181 10183
10344 10341 10338 10335 10332 10330 10327 10325 10321 10318 10315 10313 10311 10308 10305 10301 10297 10295 10291 10287 10282 10278 10276 10272 10267 10261 10256 10252 10250 10248 10248 10245 10241 10238 10234 10229 10223 10220 10218 10216 10212 10208 10205 10202 10199 10196 10194 10193 10192 10190 10188 10188 10187 10186 10186 10186 10186 10185 10185 10184 10183 10183 10181 10180 10179 10177 10176 10174 10173 10171 10170 10168 10167 10166 10165 10163 10163 10163 10163 10163 10164 10165 10167 10169 10170 10171
10338 10335 10331 10328 10325 10322 10320 10317 10314 10311 10307 10305 10302 10300 10296 10292 10288 10285 10281 10278 10273 10270 10266 10262 10258 10252 10246 10241 10238 10238 10238 10236 10231 10227 10223 10218 10212 10208 10206 10205 10201 10196 10192 10190 10186 10183 10181 10180 10179 10177 10176 10175 10175 10174 10175 10175 10175 10174 10174 10173 10173 10171 10170 10169 10168 10166 10164 10163 10161 10160 10158 10156 10155 10154 10153 10151 10151 10151 10151 10152 10153 10155 10156 10158 10160 10161
10331 10328 10325 10321 10318 10315 10312 10309 10306 10303 10300 10297 10294 10291 10288 10283 10280 10275 10271 10268 10264 10260 10256 10253 10248 10243 10237 10230 10226 10224 10225 10225 10221 10216 10211 10207 10201 10196 10194 10193 10190 10185 10180 10177 10174 10171 10170 10168 10166 10165 10163 10163 10163 10163 10163 10163 10163 10163 10163 10162 10161 10161 10160 10158 10157 10155 10153 10151 10150 10148 10146 10145 10144 10143 10141 10141 10140 10140 10140 10141 10143 10145 10146 10148 10150 10151
10323 10321 10318 10315 10311 10308 10305 10301 10298 10295 10292 10289 10286 10282 10278 10274 10270 10266 10262 10258 10254 10251 10246 10243 10238 10233 10228 10222 10215 10211 10211 10212 10209 10205 10200 10196 10191 10186 10183 10181 10178 10175 10170 10166 10163 10160 10159 10157 10155 10153 10152 10151 10151 10151 10151 10152 10152 10152 10152 10151 10151 10150 10149 10148 10146 10145 10143 10141 10139 10138 10136 10135 10133 10132 10131 10130 10130 10130 10130 10131 10133 10135 10137 10139 10140 10141
10316 10313 10311 10308 10304 10300 10297 10293 10290 10286 10283 10280 10276 10273 10268 10264 10260 10256 10252 10248 10245 10241 10237 10232 10228 10222 10218 10212 10206 10201 10200 10200 10198 10194 10190 10186 10180 10176 10173 10171 10168 10164 10160 10156 10152 10150 10148 10146 10144 10143 10141 10141 10141 10141 10141 10141 10142 10142 10141 10141 10141 10140 10139 10138 10136 10135 10133 10131 10129 10127 10125 10124 10123 10121 10121 10120 10120 10120 10120 10121 10123 10125 10128 10130 10131 10131
10309 10306 10303 10300 10296 10293 10288 10284 10281 10278 10275 10271 10267 10263 10259 10255 10251 10246 10242 10238 10235 10231 10227 10223 10217 10212 10206 10201 10196 10192 10190 10189 10187 10184 10180 10176 10171 10166 10163 10161 10158 10153 10149 10145 10142 10140 10138 10136 10133 10132 10131 10131 10131 10131 10132 10132 10132 10132 10132 10132 10131 10131 10130 10128 10127 10125 10123 10121 10120 10118 10116 10114 10113 10112 10111 10111 10110 10111 10111 10113 10115 10116 10119 10121 10123 10123
10301 10298 10295 10292 10290 10285 10280 10275 10271 10268 10265 10262 10258 10253 10250 10245 10241 10237 10233 10229 10225 10221 10216 10212 10206 10201 10196 10191 10186 10181 10179 10178 10176 10173 10171 10167 10162 10158 10154 10151 10148 10143 10140 10135 10132 10130 10128 10125 10123 10121 10121 10121 10121 10122 10123 10123 10123 10123 10123 10123 10123 10121 10121 10120 10118 10116 10115 10113 10110 10108 10106 10105 10103 10103 10102 10101 10101 10102 10103 10105 10106 10108 10111 10113 10114 10115
10294 10290 10286 10283 10280 10276 10271 10266 10262 10258 10255 10252 10248 10244 10240 10236 10232 10227 10223 10219 10215 10211 10206 10201 10196 10191 10186 10181 10176 10171 10169 10168 10166 10164 10161 10158 10153 10148 10145 10141 10138 10134 10130 10126 10123 10120 10118 10115 10113 10111 10111 10111 10112 10113 10114 10115 10115 10115 10115 10115 10114 10113 10112 10111 10110 10108 10106 10104 10101 10100 10098 10096 10095 10094 10093 10093 10093 10094 10095 10096 10098 10100 10103 10105 10106 10106
10286 10281 10277 10274 10270 10266 10262 10258 10253 10249 10245 10242 10239 10235 10231 10228 10223 10218 10214 10210 10206 10201 10196 10191 10186 10181 10176 10171 10166 10162 10159 10158 10156 10155 10153 10150 10145 10140 10136 10132 10128 10125 10121 10118 10114 10111 10108 10106 10103 10102 10101 10102 10103 10104 10105 10106 10106 10106 10106 10106 10105 10105 10104 10103 10101 10100 10098 10095 10093 10091 10089 10088 10086 10086 10085 10085 10086 10086 10088 10089 10091 10093 10095 10097 10098 10098
10276 10273 10268 10265 10261 10256 10252 10248 10244 10240 10236 10233 10229 10226 10222 10218 10214 10210 10205 10201 10197 10193 10188 10183 10178 10172 10167 10163 10158 10153 10150 10148 10148 10147 10145 10142 10138 10133 10128 10124 10120 10116 10113 10110 10107 10103 10100 10098 10095 10093 10092 10093 10093 10095 10096 10096 10097 10098 10098 10098 10097 10096 10095 10094 10093 10091 10089 10087 10085 10083 10081 10080 10078 10078 10078 10078 10078 10080 10080 10082 10084 10086 10088 10090 10091 10091
10268 10264 10260 10256 10251 10248 10243 10239 10235 10231 10228 10224 10221 10217 10213 10208 10204 10200 10196 10192 10188 10184 10180 10175 10170 10165 10160 10155 10150 10145 10141 10140 10140 10139 10138 10135 10130 10125 10120 10116 10113 10110 10106 10103 10100 10097 10094 10091 10088 10086 10085 10085 10085 10086 10087 10088 10089 10090 10090 10090 10089 10088 10087 10086 10085 10083 10081 10079 10076 10075 10073 10071 10071 10071 10071 10071 10071 10073 10073 10075 10077 10080 10081 10083 10084 10084
10260 10256 10252 10248 10243 10239 10235 10231 10226 10223 10219 10215 10211 10207 10203 10199 10194 10190 10185 10182 10178 10175 10170 10166 10161 10156 10152 10148 10142 10137 10133 10131 10131 10131 10130 10126 10122 10117 10113 10109 10106 10103 10100 10097 10095 10091 10088 10085 10082 10080 10078 10077 10078 10078 10079 10080 10081 10081 10081 10081 10081 10080 10079 10078 10076 10075 10073 10070 10068 10066 10065 10064 10064 10063 10064 10065 10065 10066 10067 10069 10071 10073 10075 10076 10077 10077
10251 10248 10243 10240 10235 10231 10226 10222 10218 10214 10210 10206 10202 10198 10195 10191 10186 10181 10176 10173 10170 10166 10161 10157 10153 10148 10145 10140 10135 10130 10125 10123 10122 10123 10122 10118 10114 10109 10105 10102 10099 10096 10094 10091 10089 10086 10082 10079 10076 10074 10072 10071 10071 10071 10071 10072 10073 10073 10074 10073 10073 10072 10070 10069 10068 10066 10064 10062 10060 10058 10058 10057 10057 10057 10057 10058 10059 10060 10061 10063 10065 10067 10069 10070 10070 10070
10243 10240 10235 10231 10226 10223 10218 10214 10210 10206 10201 10198 10194 10190 10187 10183 10178 10173 10169 10165 10161 10158 10153 10150 10145 10141 10136 10132 10127 10122 10118 10115 10114 10114 10113 10110 10105 10101 10098 10095 10092 10090 10088 10086 10083 10080 10076 10073 10070 10068 10066 10065 10064 10063 10063 10064 10065 10065 10066 10065 10065 10063 10062 10060 10059 10057 10055 10053 10052 10051 10050 10050 10050 10051 10051 10052 10053 10054 10055 10057 10059 10061 10063 10063 10064 10064
10235 10231 10227 10223 10218 10215 10210 10206 10201 10198 10193 10190 10186 10182 10179 10175 10171 10166 10161 10158 10154 10150 10146 10142 10138 10134 10130 10125 10121 10116 10111 10108 10106 10106 10105 10101 10097 10094 10091 10088 10086 10085 10083 10080 10078 10074 10070 10066 10063 10061 10060 10058 10057 10056 10056 10056 10057 10058 10058 10057 10056 10055 10053 10052 10050 10048 10046 10045 10044 10043 10043 10043 10044 10045 10045 10046 10047 10048 10050 10051 10053 10055 10056 10057 10058 10058
10226 10222 10218 10214 10210 10206 10202 10198 10193 10190 10186 10182 10178 10175 10171 10167 10163 10159 10155 10151 10147 10143 10138 10135 10131 10127 10123 10118 10114 10109 10105 10101 10100 10098 10096 10093 10090 10086 10084 10081 10080 10078 10076 10074 10071 10068 10063 10059 10056 10054 10053 10052 10051 10050 10049 10050 10050 10050 10050 10049 10048 10046 10045 10044 10042 10041 10039 10038 10037 10037 10037 10037 10038 10038 10040 10040 10041 10043 10044 10046 10048 10049 10050 10051 10051 10051
10217 10213 10209 10205 10201 10197 10193 10190 10185 10181 10178 10174 10170 10166 10163 10159 10155 10151 10147 10143 10140 10136 10132 10128 10124 10120 10116 10112 10107 10103 10098 10095 10093 10091 10090 10086 10083 10080 10077 10075 10072 10071 10070 10067 10065 10061 10056 10052 10048 10046 10046 10045 10045 10043 10043 10043 10043 10043 10041 10041 10040 10039 10038 10036 10035 10033 10031 10031 10030 10030 10031 10031 10032 10033 10034 10035 10036 10037 10039 10040 10042 10043 10045 10045 10046 10046
10209 10205 10201 10196 10193 10189 10185 10181 10178 10174 10170 10166 10163 10159 10155 10151 10147 10143 10140 10136 10133 10129 10125 10121 10117 10113 10110 10106 10101 10096 10092 10088 10086 10085 10083 10080 10076 10074 10071 10068 10065 10063 10062 10060 10058 10055 10051 10046 10042 10040 10039 10038 10038 10038 10037 10036 10036 10036 10035 10033 10033 10031 10031 10030 10028 10026 10025 10025 10025 10025 10025 10026 10027 10028 10029 10030 10031 10032 10033 10035 10037 10038 10039 10040 10040 10041
10201 10197 10193 10189 10185 10181 10177 10174 10170 10166 10163 10159 10155 10151 10148 10144 10140 10136 10133 10130 10126 10123 10119 10115 10111 10108 10104 10100 10095 10090 10086 10083 10081 10080 10077 10075 10071 10068 10065 10062 10059 10057 10055 10052 10050 10048 10045 10041 10038 10035 10033 10031 10031 10031 10031 10031 10030 10030 10028 10027 10026 10025 10024 10023 10022 10021 10020 10019 10019 10020 10020 10021 10022 10023 10024 10025 10026 10027 10029 10030 10031 10033 10034 10035 10035 10035
10194 10190 10186 10182 10178 10174 10170 10167 10163 10160 10156 10152 10148 10145 10141 10137 10133 10130 10126 10123 10120 10116 10113 10110 10106 10102 10098 10094 10089 10085 10080 10077 10075 10073 10071 10069 10065 10061 10058 10056 10053 10051 10048 10045 10043 10041 10039 10036 10033 10030 10028 10026 10026 10026 10026 10025 10025 10023 10023 10021 10020 10019 10018 10017 10016 10015 10015 10014 10015 10015 10016 10016 10018 10018 10020 10020 10021 10023 10024 10025 10026 10028 10029 10030 10030 10030
10187 10183 10180 10175 10171 10168 10164 10160 10157 10153 10150 10146 10142 10138 10135 10130 10127 10123 10120 10117 10114 10111 10107 10104 10101 10097 10093 10088 10083 10078 10075 10071 10070 10068 10065 10063 10060 10056 10053 10050 10048 10045 10043 10040 10038 10035 10033 10031 10029 10026 10024 10022 10021 10020 10020 10020 10019 10018 10016 10015 10015 10013 10013 10012 10011 10011 10010 10010 10010 10011 10011 10012 10013 10014 10015 10016 10017 10018 10020 10021 10022 10023 10024 10025 10025 10025
10181 10176 10173 10170 10165 10161 10158 10154 10151 10147 10143 10140 10136 10132 10128 10125 10121 10118 10115 10111 10108 10105 10101 10098 10095 10092 10088 10083 10079 10074 10070 10066 10064 10061 10059 10056 10054 10051 10048 10045 10043 10040 10038 10035 10032 10030 10028 10026 10024 10022 10020 10018 10016 10015 10015 10015 10013 10013 10011 10010 10010 10009 10008 10008 10007 10006 10006 10006 10006 10006 10008 10008 10009 10010 10011 10011 10013 10013 10015 10016 10017 10018 10019 10020 10020 10021
10175 10170 10166 10163 10160 10156 10152 10148 10145 10141 10138 10134 10130 10126 10123 10119 10116 10112 10110 10106 10103 10100 10096 10093 10090 10086 10083 10078 10074 10070 10066 10063 10060 10057 10054 10051 10049 10046 10043 10040 10038 10036 10033 10030 10028 10025 10023 10021 10020 10018 10016 10015 10013 10011 10010 10010 10009 10008 10007 10006 10006 10005 10004 10003 10003 10002 10002 10002 10003 10003 10003 10004 10005 10005 10006 10007 10008 10009 10010 10011 10012 10013 10013 10014 10015 10016
10168 10165 10161 10158 10154 10150 10146 10143 10139 10136 10132 10128 10125 10121 10117 10113 10110 10107 10105 10101 10098 10095 10091 10088 10085 10081 10078 10074 10070 10066 10062 10059 10056 10053 10050 10047 10044 10041 10039 10036 10033 10031 10029 10026 10024 10021 10020 10018 10016 10014 10013 10011 10010 10008 10006 10005 10005 10004 10003 10003 10001 10001 10000 9999 9999 9998 9999 9999 9999 9999 10000 10000 10000 10001 10001 10002 10003 10004 10005 10006 10007 10008 10009 10010 10010 10011
10162 10158 10155 10151 10148 10145 10141 10137 10134 10130 10127 10123 10120 10116 10112 10108 10105 10102 10100 10096 10093 10090 10086 10083 10080 10076 10073 10070 10065 10061 10058 10055 10052 10049 10046 10043 10040 10038 10035 10032 10030 10027 10025 10023 10020 10018 10016 10014 10012 10011 10009 10008 10006 10005 10003 10002 10001 10000 10000 9999 9998 9997 9996 9995 9995 9995 9995 9995 9995 9995 9996 9996 9996 9996 9997 9998 9998 10000 10000 10001 10002 10003 10004 10005 10006 10007
10156 10153 10149 10146 10143 10139 10135 10132 10129 10126 10122 10118 10115 10111 10108 10104 10101 10098 10095 10091 10088 10085 10082 10078 10075 10072 10069 10065 10061 10058 10054 10051 10048 10045 10043 10040 10036 10034 10031 10028 10026 10023 10021 10019 10017 10015 10013 10011 10009 10008 10006 10005 10003 10001 10000 9999 9998 9997 9996 9995 9994 9993 9993 9992 9992 9992 9992 9991 9991 9991 9991 9992 9992 9993 9993 9994 9995 9995 9996 9997 9998 9999 10000 10001 10002 10003
10150 10147 10143 10140 10136 10133 10131 10128 10125 10121 10118 10114 10110 10106 10103 10100 10096 10093 10090 10087 10084 10081 10077 10074 10071 10068 10065 10061 10058 10054 10050 10047 10044 10041 10039 10036 10033 10030 10028 10025 10023 10021 10018 10016 10014 10012 10010 10008 10006 10005 10003 10001 10000 9998 9997 9996 9995 9994 9993 9992 9991 9990 9990 9990 9989 9989 9988 9988 9988 9988 9988 9988 9989 9989 9990 9990 9991 9991 9992 9993 9994 9995 9996 9997 9998 9999
10145 10141 10138 10135 10131 10128 10125 10123 10120 10116 10113 10110 10106 10103 10099 10096 10092 10089 10085 10082 10079 10076 10073 10070 10066 10063 10061 10058 10054 10051 10047 10043 10041 10038 10035 10033 10030 10028 10025 10023 10020 10018 10016 10013 10011 10009 10008 10006 10004 10002 10000 9999 9998 9996 9995 9993 9992 9991 9991 9990 9989 9988 9987 9986 9986 9986 9986 9985 9985 9985 9985 9985 9986 9986 9986 9987 9988 9988 9989 9990 9991 9991 9992 9993 9994 9995
10139 10136 10133 10129 10126 10123 10121 10118 10115 10111 10108 10105 10102 10099 10095 10092 10088 10085 10081 10078 10075 10072 10069 10065 10062 10060 10056 10053 10050 10047 10044 10041 10038 10035 10032 10030 10027 10025 10022 10020 10018 10015 10013 10011 10009 10007 10005 10003 10001 10000 9998 9996 9995 9994 9992 9991 9990 9989 9988 9987 9986 9986 9985 9984 9984 9983 9983 9983 9983 9983 9983 9983 9983 9983 9983 9984 9985 9985 9986 9986 9987 9988 9989 9990 9990 9991
10133 10130 10127 10125 10121 10119 10116 10113 10110 10107 10104 10101 10098 10095 10091 10088 10085 10081 10078 10075 10071 10068 10065 10062 10058 10055 10053 10050 10047 10044 10041 10038 10035 10032 10030 10027 10025 10022 10020 10018 10015 10013 10011 10009 10007 10005 10003 10001 10000 9998 9996 9995 9993 9992 9990 9989 9988 9987 9986 9985 9985 9984 9983 9982 9981 9981 9981 9981 9981 9980 9980 9980 9981 9981 9981 9981 9981 9982 9983 9983 9984 9985 9985 9986 9987 9988
10128 10125 10122 10120 10117 10115 10111 10108 10105 10103 10100 10097 10094 10091 10088 10084 10081 10078 10075 10071 10068 10065 10062 10058 10055 10052 10049 10046 10043 10041 10038 10036 10033 10030 10027 10025 10022 10020 10017 10015 10013 10011 10009 10007 10005 10003 10001 9999 9997 9996 9994 9993 9991 9990 9988 9987 9986 9985 9984 9983 9982 9981 9981 9980 9980 9980 9979 9979 9978 9978 9978 9978 9978 9978 9979 9979 9979 9980 9980 9981 9981 9981 9982 9983 9984 9985
10123 10120 10118 10115 10113 10110 10107 10104 10101 10098 10096 10093 10090 10087 10084 10080 10077 10074 10071 10068 10065 10061 10058 10055 10052 10049 10046 10043 10040 10038 10035 10033 10030 10028 10025 10023 10020 10018 10015 10013 10011 10008 10006 10005 10003 10001 10000 9998 9996 9994 9992 9991 9990 9988 9987 9986 9985 9983 9982 9981 9981 9980 9979 9979 9978 9978 9978 9977 9977 9976 9976 9976 9976 9976 9976 9977 9977 9977 9978 9978 9979 9979 9980 9980 9981 9982
10118 10116 10113 10111 10108 10106 10103 10100 10097 10094 10091 10089 10086 10083 10080 10076 10073 10070 10067 10065 10061 10058 10055 10052 10049 10046 10043 10040 10038 10035 10033 10030 10028 10026 10023 10021 10018 10016 10013 10011 10009 10006 10005 10003 10001 9999 9997 9996 9994 9993 9991 9990 9988 9986 9985 9984 9983 9982 9981 9980 9979 9978 9978 9977 9976 9976 9976 9976 9975 9975 9975 9975 9975 9975 9975 9975 9975 9975 9976 9976 9976 9977 9978 9978 9979 9980
10114 10111 10110 10107 10105 10101 10099 10096 10093 10090 10088 10085 10082 10080 10076 10073 10070 10067 10064 10061 10058 10055 10051 10048 10046 10043 10040 10038 10035 10033 10030 10028 10025 10023 10021 10019 10016 10014 10012 10010 10007 10005 10003 10001 9999 9997 9995 9993 9992 9991 9990 9988 9986 9985 9983 9982 9981 9980 9980 9978 9978 9977 9976 9976 9975 9975 9975 9974 9974 9973 9973 9973 9973 9973 9973 9973 9973 9973 9974 9974 9975 9975 9975 9976 9976 9978
10110 10108 10105 10103 10100 10098 10095 10092 10090 10086 10084 10081 10078 10075 10073 10070 10067 10064 10061 10058 10055 10051 10048 10045 10042 10040 10037 10035 10033 10030 10028 10026 10023 10021 10019 10016 10015 10012 10010 10008 10006 10003 10001 9999 9997 9995 9993 9991 9990 9989 9988 9986 9985 9983 9982 9981 9980 9979 9978 9977 9976 9976 9975 9975 9974 9974 9973 9973 9973 9972 9972 9972 9971 9971 9971 9972 9971 9971 9972 9973 9973 9973 9974 9974 9975 9975
10106 10104 10101 10099 10096 10094 10091 10088 10086 10083 10080 10077 10075 10071 10069 10066 10063 10060 10058 10055 10051 10048 10045 10042 10040 10037 10035 10033 10030 10028 10026 10023 10021 10019 10016 10015 10012 10010 10008 10006 10004 10002 10000 9998 9996 9994 9992 9990 9989 9987 9986 9985 9983 9982 9981 9980 9978 9978 9976 9976 9975 9975 9974 9973 9973 9972 9972 9971 9971 9971 9971 9971 9970 9970 9971 9971 9970 9970 9971 9971 9971 9971 9972 9973 9973 9973
10103 10101 10098 10096 10093 10091 10088 10085 10082 10079 10076 10073 10071 10068 10065 10062 10060 10057 10054 10051 10048 10045 10043 10040 10037 10035 10033 10030 10028 10026 10023 10021 10018 10016 10015 10012 10010 10008 10006 10005 10003 10001 9998 9996 9995 9993 9991 9989 9988 9986 9985 9983 9982 9981 9980 9978 9977 9976 9976 9975 9974 9973 9973 9972 9971 9971 9971 9970 9970 9970 9970 9970 9969 9969 9969 9970 9969 9969 9969 9970 9970 9970 9970 9970 9971 9971